• In Kazakhstan
  • List of Countries
  • For 7 days
  • Water Temperature
  • Weather Map
  • News
  • Weather Widgets
  • user-avatar
    Login

    Hourly Weather Nazaret

    Today, 4 June, Thursday

    Time Temperature Precipitation Wind Pressure Humidity
    00:00 +15°C° 0 mm 0 mps 727 mmHg 78%
    01:00 +15°C° 0 mm 0 mps 727 mmHg 78%
    02:00 +14°C° 0 mm 0 mps 726 mmHg 82%
    03:00 +14°C° 0 mm 0 mps 727 mmHg 81%
    04:00 +14°C° 0 mm 0 mps 727 mmHg 81%
    05:00 +14°C° 0 mm 0 mps 727 mmHg 81%
    06:00 +19°C° 0 mm 1 mps 727 mmHg 68%
    07:00 +21°C° 0 mm 1 mps 728 mmHg 55%
    08:00 +24°C° 0 mm 1 mps 728 mmHg 40%
    09:00 +26°C° 0 mm 2 mps 729 mmHg 37%
    10:00 +27°C° 0 mm 3 mps 729 mmHg 34%
    11:00 +29°C° 0 mm 4 mps 729 mmHg 30%
    12:00 +29°C° 0 mm 4 mps 729 mmHg 31%
    13:00 +29°C° 0 mm 5 mps 729 mmHg 32%
    14:00 +29°C° 0 mm 5 mps 729 mmHg 32%
    15:00 +28°C° 0 mm 5 mps 729 mmHg 35%
    16:00 +27°C° 0 mm 5 mps 729 mmHg 37%
    17:00 +26°C° 0 mm 5 mps 729 mmHg 40%
    18:00 +23°C° 0 mm 4 mps 729 mmHg 47%
    19:00 +21°C° 0 mm 3 mps 729 mmHg 55%
    20:00 +20°C° 0 mm 2 mps 729 mmHg 62%
    21:00 +19°C° 0 mm 2 mps 729 mmHg 62%
    22:00 +19°C° 0 mm 2 mps 729 mmHg 63%
    23:00 +19°C° 0 mm 2 mps 729 mmHg 63%

    Tomorrow, 5 June, Friday

    Time Temperature Precipitation Wind Pressure Humidity
    00:00 +19°C° 0 mm 1 mps 729 mmHg 66%
    01:00 +19°C° 0 mm 1 mps 729 mmHg 68%
    02:00 +18°C° 0 mm 1 mps 729 mmHg 70%
    03:00 +18°C° 0 mm 1 mps 729 mmHg 71%
    04:00 +18°C° 0 mm 1 mps 729 mmHg 72%
    05:00 +18°C° 0 mm 1 mps 729 mmHg 73%
    06:00 +20°C° 0 mm 1 mps 729 mmHg 62%
    07:00 +23°C° 0 mm 1 mps 730 mmHg 51%
    08:00 +26°C° 0 mm 1 mps 730 mmHg 40%
    09:00 +27°C° 0 mm 2 mps 730 mmHg 37%
    10:00 +29°C° 0 mm 3 mps 730 mmHg 33%
    11:00 +32°C° 0 mm 4 mps 730 mmHg 29%
    12:00 +32°C° 0 mm 4 mps 730 mmHg 29%
    13:00 +32°C° 0 mm 5 mps 729 mmHg 29%
    14:00 +33°C° 0 mm 5 mps 729 mmHg 28%
    15:00 +32°C° 0 mm 5 mps 728 mmHg 29%
    16:00 +30°C° 0 mm 5 mps 728 mmHg 31%
    17:00 +29°C° 0 mm 5 mps 728 mmHg 32%
    18:00 +27°C° 0 mm 4 mps 728 mmHg 37%
    19:00 +25°C° 0 mm 3 mps 728 mmHg 43%
    20:00 +23°C° 0 mm 2 mps 728 mmHg 49%
    21:00 +21°C° 0 mm 2 mps 728 mmHg 51%
    22:00 +21°C° 0 mm 2 mps 728 mmHg 54%
    23:00 +20°C° 0 mm 2 mps 728 mmHg 56%

    Day after tomorrow, 6 June, Saturday

    Time Temperature Precipitation Wind Pressure Humidity
    00:00 +20°C° 0 mm 2 mps 728 mmHg 60%
    01:00 +20°C° 0 mm 1 mps 727 mmHg 63%
    02:00 +20°C° 0 mm 1 mps 727 mmHg 66%
    03:00 +20°C° 0 mm 1 mps 727 mmHg 67%
    04:00 +20°C° 0 mm 1 mps 727 mmHg 67%
    05:00 +20°C° 0 mm 1 mps 727 mmHg 67%
    06:00 +23°C° 0 mm 1 mps 728 mmHg 57%
    07:00 +26°C° 0 mm 1 mps 728 mmHg 46%
    08:00 +29°C° 0 mm 1 mps 729 mmHg 36%
    09:00 +30°C° 0 mm 2 mps 729 mmHg 34%
    10:00 +32°C° 0 mm 2 mps 728 mmHg 32%
    11:00 +35°C° 0 mm 3 mps 728 mmHg 30%
    12:00 +34°C° 0 mm 4 mps 728 mmHg 31%
    13:00 +34°C° 0 mm 5 mps 728 mmHg 32%
    14:00 +34°C° 0 mm 6 mps 727 mmHg 32%
    15:00 +33°C° 0 mm 6 mps 727 mmHg 34%
    16:00 +32°C° 0 mm 5 mps 726 mmHg 36%
    17:00 +30°C° 0 mm 5 mps 726 mmHg 38%
    18:00 +28°C° 0 mm 4 mps 726 mmHg 45%
    19:00 +26°C° 0 mm 3 mps 726 mmHg 52%
    20:00 +23°C° 0 mm 2 mps 726 mmHg 59%
    21:00 +23°C° 0 mm 2 mps 726 mmHg 57%
    22:00 +23°C° 0 mm 1 mps 726 mmHg 54%
    23:00 +21°C° 0 mm 0 mps 726 mmHg 52%

    7 June, Sunday

    Time Temperature Precipitation Wind Pressure Humidity
    00:00 +22°C° 0 mm 1 mps 726 mmHg 55%
    01:00 +21°C° 0 mm 2 mps 725 mmHg 59%
    02:00 +21°C° 0 mm 2 mps 725 mmHg 62%
    03:00 +20°C° 0 mm 2 mps 725 mmHg 66%
    04:00 +21°C° 0 mm 1 mps 725 mmHg 70%
    05:00 +21°C° 0 mm 1 mps 725 mmHg 75%
    06:00 +23°C° 0 mm 1 mps 725 mmHg 62%
    07:00 +26°C° 0 mm 1 mps 726 mmHg 50%
    08:00 +29°C° 0 mm 1 mps 726 mmHg 38%
    09:00 +31°C° 0 mm 2 mps 726 mmHg 34%
    10:00 +34°C° 0 mm 2 mps 726 mmHg 30%
    11:00 +36°C° 0 mm 3 mps 726 mmHg 26%
    12:00 +36°C° 0 mm 4 mps 726 mmHg 28%
    13:00 +35°C° 0 mm 5 mps 726 mmHg 30%
    14:00 +34°C° 0 mm 6 mps 725 mmHg 31%
    15:00 +33°C° 0 mm 6 mps 725 mmHg 34%
    16:00 +32°C° 0 mm 5 mps 725 mmHg 36%
    17:00 +29°C° 0 mm 5 mps 725 mmHg 39%
    18:00 +27°C° 0 mm 4 mps 725 mmHg 45%
    19:00 +25°C° 0 mm 3 mps 725 mmHg 52%
    20:00 +23°C° 0 mm 2 mps 725 mmHg 58%
    21:00 +23°C° 0 mm 2 mps 725 mmHg 59%
    22:00 +23°C° 0 mm 2 mps 725 mmHg 60%
    23:00 +22°C° 0 mm 1 mps 724 mmHg 60%

    8 June, Monday

    Time Temperature Precipitation Wind Pressure Humidity
    00:00 +22°C° 0 mm 1 mps 724 mmHg 63%
    01:00 +21°C° 0 mm 1 mps 724 mmHg 65%
    02:00 +20°C° 0 mm 1 mps 724 mmHg 67%
    03:00 +20°C° 0 mm 1 mps 724 mmHg 68%
    04:00 +20°C° 0 mm 1 mps 724 mmHg 68%
    05:00 +20°C° 0 mm 1 mps 724 mmHg 69%
    06:00 +22°C° 0 mm 1 mps 724 mmHg 60%
    07:00 +25°C° 0 mm 2 mps 725 mmHg 51%
    08:00 +27°C° 0 mm 2 mps 725 mmHg 42%
    09:00 +29°C° 0 mm 3 mps 725 mmHg 38%
    10:00 +30°C° 0 mm 3 mps 725 mmHg 34%
    11:00 +33°C° 0 mm 4 mps 726 mmHg 30%
    12:00 +33°C° 0 mm 5 mps 725 mmHg 30%
    13:00 +33°C° 0 mm 5 mps 725 mmHg 30%
    14:00 +33°C° 0 mm 6 mps 725 mmHg 30%
    15:00 +32°C° 0 mm 6 mps 725 mmHg 35%
    16:00 +29°C° 0 mm 5 mps 725 mmHg 41%
    17:00 +28°C° 0 mm 4 mps 724 mmHg 46%
    18:00 +26°C° 0 mm 4 mps 724 mmHg 56%
    19:00 +24°C° 0 mm 3 mps 725 mmHg 65%
    20:00 +21°C° 0 mm 2 mps 725 mmHg 75%
    21:00 +20°C° 0 mm 2 mps 724 mmHg 75%
    22:00 +20°C° 0 mm 2 mps 724 mmHg 74%
    23:00 +20°C° 0 mm 2 mps 724 mmHg 74%

    9 June, Tuesday

    Time Temperature Precipitation Wind Pressure Humidity
    00:00 +19°C° 0 mm 2 mps 724 mmHg 77%
    01:00 +19°C° 0 mm 2 mps 724 mmHg 80%
    02:00 +19°C° 0 mm 2 mps 724 mmHg 82%
    03:00 +18°C° 0 mm 2 mps 724 mmHg 84%
    04:00 +19°C° 0 mm 1 mps 724 mmHg 85%
    05:00 +19°C° 0 mm 1 mps 724 mmHg 86%
    06:00 +21°C° 0 mm 2 mps 725 mmHg 75%
    07:00 +24°C° 0 mm 2 mps 725 mmHg 63%
    08:00 +26°C° 0 mm 2 mps 726 mmHg 52%
    09:00 +28°C° 0 mm 3 mps 726 mmHg 46%
    10:00 +30°C° 0 mm 3 mps 726 mmHg 41%
    11:00 +32°C° 0 mm 4 mps 726 mmHg 35%
    12:00 +32°C° 0 mm 5 mps 726 mmHg 35%
    13:00 +32°C° 0 mm 6 mps 726 mmHg 35%
    14:00 +32°C° 0 mm 6 mps 726 mmHg 36%
    15:00 +30°C° 0 mm 6 mps 725 mmHg 38%
    16:00 +29°C° 0 mm 5 mps 725 mmHg 40%
    17:00 +28°C° 0 mm 4 mps 725 mmHg 42%
    18:00 +26°C° 0 mm 3 mps 725 mmHg 51%
    19:00 +24°C° 0 mm 2 mps 725 mmHg 61%
    20:00 +20°C° 0 mm 2 mps 725 mmHg 70%
    21:00 +20°C° 0 mm 2 mps 725 mmHg 71%
    22:00 +19°C° 0 mm 2 mps 724 mmHg 73%
    23:00 +20°C° 0 mm 1 mps 724 mmHg 74%
    Show more